Regional Weather Roundup
Issued by NWS Portland, ME

Home | Current Version | Previous Version | Text Only | Print | Product List | Glossary On
Versions: 1 2 3 4 5 6 7 8 9 10 11 12 13 14 15 16 17 18 19 20 21 22 23 24 25 26 27 28 29 30 31 32 33 34 35 36 37 38 39 40 41 42 43 44 45 46 47 48 49 50
000
ASUS41 KGYX 270510
RWRGYX
WEATHER ROUNDUP FOR MAINE AND NEW HAMPSHIRE
NATIONAL WEATHER SERVICE GRAY ME
100 AM EDT FRI MAR 27 2015

MEZ002-005-006-010-012-015-018-020-021-024-026-027-029-270600-
MAINE

CITY           SKY/WX    TMP DP  RH WIND       PRES   REMARKS
PORTLAND       LGT RAIN  41  39  93 N6        29.66F
SANFORD        CLOUDY    39  34  81 N9        29.65F
BAR HARBOR     CLOUDY    39  39 100 NW3       29.67S
WISCASSET      LGT RAIN  39  38  96 CALM      29.68F
ROCKLAND       MOCLDY    37  36  93 NE3       29.65F
FRYEBURG       LGT RAIN  36  35  96 CALM      29.66S VSB 1/2
LEWISTONAUBURN CLOUDY    37  36  93 CALM      29.66S
AUGUSTA        LGT RAIN  37  36  96 N3        29.66F
WATERVILLE     CLOUDY    37  34  87 CALM      29.64F VSB 1/2
BANGOR         LGT RAIN  37  37 100 NW3       29.66F FOG
GREENVILLE       N/A     32  31  96 NW9       29.61R
MILLINOCKET    CLOUDY    35  33  92 NW3       29.66F
HOULTON        MIX PCPN  35  33  92 W3        29.63F
PRESQUE ISLE   CLOUDY    36  27  69 CALM      29.63F
FRENCHVILLE    CLOUDY    35  26  69 NW6       29.60S
CARIBOU        CLOUDY    36  29  75 W3        29.62S
$$

NHZ002-005-008-009-011-012-014-270600-
NEW HAMPSHIRE

CITY           SKY/WX    TMP DP  RH WIND       PRES   REMARKS
PORTSMOUTH     LGT RAIN  40  40  98 N10       29.63F FOG
ROCHESTER      LGT RAIN  39  38  96 N8        29.64F FOG
NASHUA         LGT RAIN  41  40  96 NW8       29.67S
MANCHESTER     LGT RAIN  40  40 100 N8        29.65S
CONCORD        LGT RAIN  38  36  92 NW3       29.67F
LACONIA          N/A     37  34  87 CALM      29.63F
PLYMOUTH       CLOUDY    37  37 100 NW6       29.66F
BERLIN         LGT RAIN  34  32  92 CALM      29.67F FOG
WHITEFIELD     LGT SNOW  34  32  92 CALM      29.69S FOG
JAFFREY        LGT RAIN  37  36  96 N3        29.65S
KEENE          CLOUDY    37  36  93 CALM      29.68S
LEBANON        CLOUDY    36  34  92 CALM      29.70R FOG
MT WASHINGTON  CLOUDY    23  21  93 NW26        N/A  WCI   6
$$

VTZ005-007-008-270600-
VERMONT

CITY           SKY/WX    TMP DP  RH WIND       PRES   REMARKS
ST JOHNSBURY     N/A     34  33  96 MISG      29.70R
MONTPELIER     CLOUDY    33  33 100 CALM      29.74R FOG
BURLINGTON     LGT RAIN  35  32  88 SE3       29.73S
$$

MAZ007-012-024-CTZ003-RIZ002-NYZ038-NYZ072-270600-
SOUTHERN NEW ENGLAND AND NY

CITY           SKY/WX    TMP DP  RH WIND       PRES   REMARKS
BOSTON         CLOUDY    44  43  96 N5        29.65R
WORCESTER      LGT RAIN  40  38  93 N8        29.64R
NANTUCKET      LGT RAIN  46  45  96 S16G24    29.60S VSB 1/4
PROVIDENCE     CLOUDY    45  43  93 N9        29.63F
HARTFORD       CLOUDY    43  40  89 N8        29.65F
ALBANY         CLOUDY    37  34  89 NW3       29.74S
NEW YORK CITY  LGT RAIN  44  39  82 N14       29.67R
$$

ANZ081-ANZ082-ANZ150-NHZ014-MEZ023>029-270600-
COASTAL MARINE OBSERVATIONS

STATION/POSITION TIME  TEMP    WIND        PRES    WAVE
                       AIR SEA DIR/SP/G            HT/PER
                 (UTC) (F)     (DEG/KT/KT) (MB)    (FT/S)
MOUNT DESERT ROC 0500   38                 1004.1R
MATINICUS ROCK   0500   38      10/ 13/ 14 1003.5F
WELLS            0400   42      10/  5/  7 1004.2R
ISLE OF SHOALS   0500   40      10/ 16/ 18 1003.2F
JEFFREYS LEDGE   0421      40                N/A     4/ 7
CASHES LEDGE BUO 0450   40 39              1003.6R   6/ 8
$$

.............KEY..............
   WCI - WIND CHILL
   TC  - TEMPERATURE IN CELSIUS
   VSB - VISIBILITY IN MILES
   HX  - HEAT INDEX
   FAIR- INDICATES FEW OR NO CLOUDS BELOW 12,000 FT, WITH NO
         SIGNIFICANT WEATHER AND/OR OBSTRUCTIONS TO VISIBILITY.




USA.gov is the U.S. government's official web portal to all federal, state and local government web resources and services.